| time (UTC) | temp C | wind direction | speed KPH | gust KPH | rain 1hr cm | rain 24hr cm | rain mn cm | humidity % | barometer mb |
| 20260505031550 | 13 | 360 | 0.0 | 4.8 | 0.00 | 0.00 | 0.00 | 65 | 994.0 |
| 20260505030045 | 13 | 360 | 0.0 | 0.0 | 0.00 | 0.00 | 0.00 | 68 | 994.1 |
| 20260505024549 | 14 | 360 | 0.0 | 0.0 | 0.00 | 0.00 | 0.00 | 67 | 994.1 |
| 20260505023050 | 15 | 360 | 0.0 | 0.0 | 0.00 | 0.00 | 0.00 | 67 | 994.0 |
| 20260505021545 | 15 | 360 | 0.0 | 0.0 | 0.00 | 0.00 | 0.00 | 65 | 993.8 |
| 20260505020046 | 16 | 360 | 0.0 | 0.0 | 0.00 | 0.00 | 0.00 | 65 | 993.7 |
| 20260505014550 | 16 | 360 | 0.0 | 0.0 | 0.00 | 0.00 | 0.00 | 62 | 993.5 |
| 20260505013041 | 17 | 360 | 0.0 | 0.0 | 0.00 | 0.00 | 0.00 | 59 | 993.3 |
| 20260505011543 | 17 | 360 | 0.0 | 0.0 | 0.00 | 0.00 | 0.00 | 55 | 993.0 |
| 20260505004541 | 20 | 360 | 0.0 | 0.0 | 0.00 | 0.00 | 0.00 | 48 | 992.9 |
| 20260505003044 | 21 | 360 | 0.0 | 3.2 | 0.00 | 0.00 | 0.00 | 46 | 992.8 |
| 20260505001540 | 21 | 360 | 1.6 | 8.0 | 0.00 | 0.00 | 0.00 | 41 | 992.8 |
| 20260505000045 | 21 | 360 | 1.6 | 6.4 | 0.00 | 0.00 | 0.00 | 42 | 992.7 |
| 20260504234539 | 22 | 360 | 1.6 | 4.8 | 0.00 | 0.00 | 0.00 | 41 | 992.4 |
| 20260504233039 | 22 | 360 | 1.6 | 6.4 | 0.00 | 0.00 | 0.00 | 39 | 992.2 |
| 20260504231544 | 22 | 360 | 3.2 | 6.4 | 0.00 | 0.00 | 0.00 | 39 | 992.1 |
| 20260504230044 | 23 | 360 | 0.0 | 3.2 | 0.00 | 0.00 | 0.00 | 42 | 992.1 |
| 20260504224538 | 23 | 360 | 3.2 | 8.0 | 0.00 | 0.00 | 0.00 | 35 | 992.1 |
| 20260504223036 | 24 | 360 | 1.6 | 9.7 | 0.00 | 0.00 | 0.00 | 32 | 992.1 |
| 20260504221548 | 24 | 360 | 1.6 | 9.7 | 0.00 | 0.00 | 0.00 | 34 | 992.3 |
| 20260504220035 | 25 | 360 | 1.6 | 9.7 | 0.00 | 0.00 | 0.00 | 32 | 992.2 |
| 20260504214535 | 25 | 360 | 1.6 | 9.7 | 0.00 | 0.00 | 0.00 | 31 | 992.2 |
| 20260504213047 | 25 | 360 | 3.2 | 9.7 | 0.00 | 0.00 | 0.00 | 31 | 992.3 |
| 20260504211537 | 25 | 360 | 3.2 | 12.9 | 0.00 | 0.00 | 0.00 | 30 | 992.3 |
| 20260504210032 | 25 | 360 | 1.6 | 14.5 | 0.00 | 0.00 | 0.00 | 33 | 992.3 |
| 20260504204531 | 25 | 69 | 1.6 | 11.3 | 0.00 | 0.00 | 0.00 | 34 | 992.5 |
| 20260504203042 | 25 | 169 | 3.2 | 12.9 | 0.00 | 0.00 | 0.00 | 34 | 992.6 |
| 20260504201527 | 25 | 135 | 4.8 | 11.3 | 0.00 | 0.00 | 0.00 | 34 | 992.8 |
| 20260504200026 | 25 | 175 | 6.4 | 16.1 | 0.00 | 0.00 | 0.00 | 35 | 993.0 |
| 20260504194531 | 25 | 159 | 3.2 | 8.0 | 0.00 | 0.00 | 0.00 | 36 | 993.0 |
| 20260504193023 | 25 | 360 | 8.0 | 14.5 | 0.00 | 0.00 | 0.00 | 36 | 993.2 |
| 20260504191532 | 25 | 360 | 3.2 | 9.7 | 0.00 | 0.00 | 0.00 | 35 | 993.3 |
| 20260504190020 | 25 | 360 | 6.4 | 12.9 | 0.00 | 0.00 | 0.00 | 37 | 993.7 |
| 20260504184520 | 25 | 360 | 3.2 | 9.7 | 0.00 | 0.00 | 0.00 | 37 | 993.8 |
| 20260504183017 | 25 | 360 | 3.2 | 12.9 | 0.00 | 0.00 | 0.00 | 34 | 994.0 |
| 20260504181518 | 26 | 360 | 1.6 | 12.9 | 0.00 | 0.00 | 0.00 | 35 | 994.1 |
| 20260504180019 | 26 | 360 | 1.6 | 8.0 | 0.00 | 0.00 | 0.00 | 37 | 994.1 |
| 20260504174515 | 27 | 360 | 1.6 | 12.9 | 0.00 | 0.00 | 0.00 | 30 | 994.4 |
| 20260504173012 | 27 | 360 | 1.6 | 6.4 | 0.00 | 0.00 | 0.00 | 31 | 994.4 |
| 20260504171510 | 26 | 360 | 3.2 | 8.0 | 0.00 | 0.00 | 0.00 | 33 | 994.5 |
| 20260504150109 | 24 | 360 | 1.6 | 6.4 | 0.00 | 0.00 | 0.00 | 42 | 996.0 |
| 20260504100111 | 6 | 360 | 0.0 | 0.0 | 0.00 | 0.00 | 0.00 | 90 | 995.7 |
| 20260504081555 | 6 | 360 | 0.0 | 0.0 | 0.00 | 0.00 | 0.00 | 90 | 995.2 |
| 20260504080112 | 6 | 360 | 0.0 | 0.0 | 0.00 | 0.00 | 0.00 | 89 | 995.1 |
| 20260504060158 | 7 | 360 | 0.0 | 0.0 | 0.00 | 0.00 | 0.00 | 88 | 995.5 |
| 20260504044539 | 7 | 360 | 0.0 | 0.0 | 0.00 | 0.00 | 0.00 | 85 | 995.6 |
| 20260504043036 | 8 | 360 | 0.0 | 0.0 | 0.00 | 0.00 | 0.00 | 85 | 995.7 |
| 20260504041532 | 8 | 360 | 0.0 | 0.0 | 0.00 | 0.00 | 0.00 | 84 | 995.8 |
| 20260504040056 | 8 | 360 | 0.0 | 0.0 | 0.00 | 0.00 | 0.00 | 84 | 995.8 |
| 20260504034531 | 8 | 360 | 0.0 | 0.0 | 0.00 | 0.00 | 0.00 | 84 | 995.9 |
| 20260504033034 | 8 | 360 | 0.0 | 0.0 | 0.00 | 0.00 | 0.00 | 83 | 995.9 |